TimeCDT,TemperatureF,Dew PointF,Humidity,Sea Level PressureIn,VisibilityMPH,Wind Direction,Wind SpeedMPH,Gust SpeedMPH,PrecipitationIn,Events,Conditions,WindDirDegrees,DateUTC
12:15 AM,37.4,33.8,87,29.94,10.0,Calm,Calm,-,N/A,,Clear,0,2012-10-16 05:15:00
12:35 AM,37.4,35.6,93,29.94,10.0,Calm,Calm,-,N/A,,Clear,0,2012-10-16 05:35:00
12:55 AM,37.4,35.6,93,29.94,10.0,SSW,3.5,-,N/A,,Clear,200,2012-10-16 05:55:00
1:15 AM,37.4,35.6,93,29.95,10.0,SSW,3.5,-,N/A,,Clear,210,2012-10-16 06:15:00
1:35 AM,37.4,35.6,93,29.95,10.0,Calm,Calm,-,N/A,,Clear,0,2012-10-16 06:35:00
1:55 AM,37.4,35.6,93,29.95,10.0,Calm,Calm,-,N/A,,Clear,0,2012-10-16 06:55:00
2:15 AM,39.2,35.6,87,29.94,10.0,South,3.5,-,N/A,,Clear,180,2012-10-16 07:15:00
2:35 AM,35.6,35.6,100,29.93,7.0,South,4.6,-,N/A,,Clear,190,2012-10-16 07:35:00
2:55 AM,37.4,35.6,93,29.92,7.0,SSW,4.6,-,N/A,,Clear,200,2012-10-16 07:55:00
3:15 AM,37.4,37.4,100,29.91,7.0,Calm,Calm,-,N/A,,Clear,0,2012-10-16 08:15:00
3:35 AM,39.2,37.4,93,29.91,7.0,South,3.5,-,N/A,,Clear,170,2012-10-16 08:35:00
3:55 AM,41.0,37.4,87,29.90,10.0,South,4.6,-,N/A,,Clear,180,2012-10-16 08:55:00
4:15 AM,41.0,37.4,87,29.89,7.0,South,3.5,-,N/A,,Clear,180,2012-10-16 09:15:00
4:35 AM,41.0,37.4,87,29.89,7.0,SSW,4.6,-,N/A,,Clear,200,2012-10-16 09:35:00
4:55 AM,41.0,37.4,87,29.89,7.0,South,6.9,-,N/A,,Clear,190,2012-10-16 09:55:00
5:15 AM,41.0,37.4,87,29.89,7.0,South,5.8,-,N/A,,Clear,180,2012-10-16 10:15:00
5:35 AM,42.8,37.4,81,29.89,7.0,South,5.8,-,N/A,,Clear,190,2012-10-16 10:35:00
5:55 AM,41.0,37.4,87,29.90,7.0,South,5.8,-,N/A,,Clear,190,2012-10-16 10:55:00
6:15 AM,42.8,37.4,81,29.89,7.0,South,6.9,-,N/A,,Clear,170,2012-10-16 11:15:00
6:35 AM,42.8,37.4,81,29.88,10.0,SSE,3.5,-,N/A,,Clear,160,2012-10-16 11:35:00
6:55 AM,42.8,37.4,81,29.88,10.0,South,6.9,-,N/A,,Mostly Cloudy,170,2012-10-16 11:55:00
7:45 AM,44.6,39.2,81,29.88,10.0,SSW,4.6,-,N/A,,Overcast,210,2012-10-16 12:45:00
8:45 AM,46.4,39.2,76,29.87,10.0,South,5.8,-,N/A,,Clear,170,2012-10-16 13:45:00
9:45 AM,51.8,39.2,62,29.84,10.0,South,10.4,19.6,N/A,,Clear,170,2012-10-16 14:45:00
10:45 AM,53.6,41.0,62,29.81,10.0,SSE,12.7,19.6,N/A,,Clear,160,2012-10-16 15:45:00
11:45 AM,57.2,42.8,59,29.77,10.0,South,15.0,20.7,N/A,,Clear,170,2012-10-16 16:45:00
12:45 PM,62.6,42.8,48,29.72,10.0,South,15.0,20.7,N/A,,Clear,170,2012-10-16 17:45:00
1:45 PM,64.4,41.0,42,29.67,10.0,SSE,17.3,-,N/A,,Clear,160,2012-10-16 18:45:00
3:45 PM,60.8,42.8,52,29.60,10.0,SSE,15.0,20.7,N/A,,Mostly Cloudy,150,2012-10-16 20:45:00
4:45 PM,60.8,42.8,52,29.62,10.0,SE,6.9,-,N/A,,Mostly Cloudy,140,2012-10-16 21:45:00
6:45 PM,57.2,48.2,72,29.57,10.0,ESE,9.2,16.1,N/A,,Scattered Clouds,120,2012-10-16 23:45:00
7:45 PM,57.2,48.2,72,29.54,10.0,SE,9.2,16.1,N/A,,Scattered Clouds,130,2012-10-17 00:45:00
8:45 PM,57.2,48.2,72,29.54,10.0,SE,8.1,-,N/A,,Scattered Clouds,130,2012-10-17 01:45:00
9:15 PM,57.2,46.4,67,29.53,10.0,SSE,8.1,-,N/A,,Clear,150,2012-10-17 02:15:00
9:35 PM,57.2,46.4,67,29.52,10.0,South,9.2,-,N/A,,Clear,170,2012-10-17 02:35:00
9:55 PM,59.0,46.4,63,29.52,10.0,South,9.2,-,N/A,,Clear,170,2012-10-17 02:55:00
10:15 PM,59.0,46.4,63,29.52,10.0,SSE,10.4,-,N/A,,Clear,160,2012-10-17 03:15:00
10:35 PM,59.0,46.4,63,29.51,10.0,SSE,9.2,-,N/A,,Clear,160,2012-10-17 03:35:00
10:55 PM,57.2,48.2,72,29.51,10.0,South,5.8,-,N/A,,Clear,180,2012-10-17 03:55:00
11:15 PM,57.2,48.2,72,29.51,10.0,South,6.9,-,N/A,,Clear,180,2012-10-17 04:15:00
11:35 PM,57.2,48.2,72,29.50,10.0,South,8.1,-,N/A,,Clear,180,2012-10-17 04:35:00
11:55 PM,59.0,50.0,72,29.50,10.0,South,9.2,-,N/A,,Mostly Cloudy,190,2012-10-17 04:55:00